This is the latest recevied weather packets stored in our database for station/object N8VDS-10. If no packets are shown the sender has not sent any weather packets the latest 10 day(s).
| Time | Temp. | Humidity | Pressure | Rain* | Wind** | Luminosity | Snow |
|---|---|---|---|---|---|---|---|
| 1777739875 | 6.11° C | 47% | 1021.6 hPa | 0 mm | - | 282 W/m² | - |
| 1777739269 | 6.11° C | 47% | 1021.6 hPa | 0 mm | - | 268 W/m² | - |
| 1777738663 | 6.67° C | 45% | 1021.6 hPa | 0 mm | - | 231 W/m² | - |
| 1777738052 | 6.11° C | 45% | 1021.4 hPa | 0 mm | - | 316 W/m² | - |
| 1777737751 | 6.11° C | 49% | 1021.7 hPa | 0 mm | - | 223 W/m² | - |
| 1777737449 | 6.11° C | 47% | 1021.7 hPa | 0 mm | - | 223 W/m² | - |
| 1777736223 | 6.11° C | 47% | 1021.6 hPa | 0 mm | - | 161 W/m² | - |
| 1777735920 | 6.11° C | 46% | 1021.6 hPa | 0 mm | - | 792 W/m² | - |
| 1777735617 | 5.56° C | 49% | 1021.6 hPa | 0 mm | - | 181 W/m² | - |
| 1777735314 | 6.11° C | 49% | 1021.6 hPa | 0 mm | - | 451 W/m² | - |
| 1777735012 | 5.56° C | 50% | 1021.6 hPa | 0 mm | - | 756 W/m² | - |
| 1777734709 | 5.56° C | 48% | 1021.7 hPa | 0 mm | - | 170 W/m² | - |
| 1777734407 | 6.11° C | 48% | 1021.7 hPa | 0 mm | - | 203 W/m² | - |
| 1777734103 | 5.56° C | 46% | 1021.7 hPa | 0 mm | - | 745 W/m² | - |
| 1777733799 | 5° C | 48% | 1021.6 hPa | 0 mm | - | 739 W/m² | - |
| 1777733496 | 5.56° C | 49% | 1021.6 hPa | 0 mm | - | 325 W/m² | - |
| 1777733192 | 5.56° C | 49% | 1021.8 hPa | 0 mm | - | 145 W/m² | - |
| 1777732889 | 5° C | 48% | 1021.7 hPa | 0 mm | - | 518 W/m² | - |
| 1777732585 | 5.56° C | 47% | 1021.6 hPa | 0 mm | - | 123 W/m² | - |
| 1777732283 | 6.11° C | 49% | 1021.7 hPa | 0 mm | - | 190 W/m² | - |
| 1777731980 | 6.11° C | 49% | 1021.5 hPa | 0 mm | - | 644 W/m² | - |
| 1777731677 | 5.56° C | 48% | 1021.9 hPa | 0 mm | - | 613 W/m² | - |
| 1777731375 | 5.56° C | 48% | 1021.7 hPa | 0 mm | - | 618 W/m² | - |
| 1777731072 | 5° C | 48% | 1021.8 hPa | 0 mm | - | 173 W/m² | - |
| 1777730771 | 5° C | 50% | 1021.7 hPa | 0 mm | - | 563 W/m² | - |
* Rain latest hour (hover to see other rain measurements)
** Current wind speed in m/s (hover to see current wind gust speed)